Location: Chmeln�
(49.6483°N, 14.9871°E)
Time: 15:34:59
(UTC+00:00)

COSMOS 2455 - Pass Details

Date: 18 September 2020
Orbit: 898 x 911 km, 67.1° (Epoch: 24 October)

Event Time Altitude Azimuth Distance (km) Brightness Sun altitude
Exits shadow 22:35:50 30° 16° (NNE) 1,577 4.4 -38.8°
Drops below altitude 10° 22:38:56 10° 31° (NNE) 2,608 5.7 -38.8°
Sets 22:41:32 0° 36° (NE) 3,553 6.5 -38.9°
